Flag for Saint Vincent and Grenadines Weather past 2 weeks in Kingstown, Saint Vincent and Grenadines

Now
82 °F

Passing clouds.


Feels Like: 89 °F
Forecast: 80 / 84 °F
Wind: 12 mph from Northeast

Location: Arnos Vale

Current Time: Jul 28, 2014 at 12:17:29 AM

Latest Report: Jul 27, 2014 at 10:00 PM


Visibility: N/A

Pressure: 30.07 "Hg

Humidity: 79%

Dew point: 75 °F

Location of KingstownLocation

Historic Weather in Kingstown — Graph

°F

Kingstown temperature yesterday

Maximum temperature yesterday: 86 °F (at 11:00 AM)
Minimum temperature yesterday: 81 °F (at 12:00 AM)
Average temperature yesterday: 83 °F

Past Weeks' High & Low Weather Summary

 TemperatureHumidityPressure
High88 °F (Jul 14, 5:00 PM)94% (Jul 15, 4:00 PM)30.12 "Hg (Jul 15, 4:00 PM)
Low77 °F (Jul 16, 10:00 PM)55% (Jul 20, 1:00 PM)29.92 "Hg (Jul 25, 3:00 PM)
Average83 °F77%30.03 "Hg
* Reported Jul 12 10:00 PM — Jul 27 10:00 PM, Kingstown, Weather by CustomWeather, © 2014

Note: Actual official high and low records may vary slightly from our data, if they occured in-between our weather recording intervals... More about our weather records

Advertising

Kingstown weather history for previous 24 hours

 ConditionsComfort  
Time TempWeatherWind HumidityBarometerVisibility
10:00 PM
Jul 27
82 °FPassing clouds.12 mph79%30.07 "HgN/A
9:00 PM81 °FPassing clouds.12 mph84%30.07 "HgN/A
8:00 PM81 °FPassing clouds.6 mph84%30.04 "HgN/A
7:00 PM81 °FPassing clouds.10 mph84%30.01 "HgN/A
6:00 PM81 °FScattered clouds.14 mph84%30.01 "HgN/A
5:00 PM82 °FSprinkles. Scattered clouds.13 mph84%30.01 "HgN/A
4:00 PM84 °FSprinkles. Broken clouds.17 mph79%30.01 "HgN/A
3:00 PM86 °FScattered clouds.17 mph75%30.01 "HgN/A
2:00 PM86 °FScattered clouds.17 mph75%30.01 "HgN/A
1:00 PM86 °FScattered clouds.21 mph75%30.04 "HgN/A
12:00 PM86 °FScattered clouds.18 mph75%30.04 "HgN/A
11:00 AM86 °FBroken clouds.18 mph75%30.07 "HgN/A
10:00 AM84 °FPartly sunny.16 mph74%30.07 "HgN/A
9:00 AM84 °FScattered clouds.16 mph79%30.04 "HgN/A
8:00 AM84 °FScattered clouds.17 mph74%30.04 "HgN/A
7:00 AM82 °FScattered clouds.12 mph84%30.04 "HgN/A
6:00 AM82 °FScattered clouds.13 mph79%30.01 "HgN/A
12:00 AM81 °FPassing clouds.13 mph84%30.04 "HgN/A
Weather by CustomWeather, © 2014

See weather overviewHow to use our weather pages